Weather in Rozhdestvenka

Russia / Chelyabinsk Oblast     54°26′26″N   61°41′01″E
temp.,
°C
wind,
m/s
gust,
m/s
humid.,
%
clouds,
%
prec.,
mm/h
press.,
hPa
HPBL,
m
20 september, mon
mon2023:00+2wnw6127180 0.0 1019747
02:00+4nnw61059100 0.0 10201260
05:00+4nw71056100 0.0 10211321
08:00+2wnw510655 0.0 1023811
11:00+6nnw685166 0.0 10231267
14:00+9nnw674293 0.0 10241729
17:00+7n674697 0.0 10251612
20:00+4nne366195 0.0 1027182
21 september, tue
tue2123:00+5n3656100 0.0 1028476
02:00+4n246196 0.0 1029239
05:00+4nne1368100 0.0 1029183
08:00+3n34735 0.0 1030289
11:00+6n225512 0.0 10291005
14:00+10nnw22425 0.0 10281261
17:00+10w22384 0.0 10261308
20:00+6sw22520 0.0 102610
22 september, wed
wed2223:00+4sw33590 0.0 102527
02:00+3wsw33645 0.0 102541
05:00+2w34685 0.0 102455
08:00+3nw236356 0.0 102499
11:00+10nnw334326 0.0 1024755
14:00+13nnw34336 0.0 10231444
17:00+12n4435100 0.0 10231422
20:00+7ne33505 0.0 102436
23 september, thu
thu2323:00+5nne22600 0.0 102520
02:00+4nne33695 0.0 102640
05:00+3nne348416 0.0 102865
08:00+5ne357812 0.0 1029219
11:00+9ene44545 0.0 1030977
14:00+11e32435 0.0 10301375
17:00+12ese33425 0.0 10291240
20:00+7se22585 0.0 103117
24 september, fri
fri2423:00+5sse48684 0.0 1032148
02:00+4sse4974100 0.0 1031190
05:00+3s3774100 0.0 1032137
08:00+5s4866100 0.0 1032256
11:00+10ssw574799 0.0 1031614
14:00+13s5636100 0.0 10291106
17:00+13s563392 0.0 10281096
20:00+8sse47455 0.0 1028113